Date String (YYYY-MM-DD hh:mm:ss) UTC,Instrument flags,Ambient pressure (hPa),Sample flow (lpm),Bypass flow (lpm),Sample temperature (°C),Ambient temperature (°C),ASC tube jacket temperature (°C),LED temperature (°C),Box temperature (°C),Sample RH (%),Span deviation,Mass concentration (μg/m³),Mass concentration (μg/m³),Mass concentration (μg/m³)
DateTimeUTC,F1_M11,P_M11,Q1_M11,Q2_M11,T1_M11,T2_M11,T3_M11,T4_M11,T5_M11,U1_M11,ZSPAN_M11,X0_M11,X2_M11,X1_M11
2022-09-07 03:00:00,,0831.7,4.99,0.00,29.5,28.4,00.0,38.1,31.4,12.7,0002.8,0033.22,0026.20,0024.96
2022-09-07 03:01:00,,0831.7,5.01,0.00,29.5,28.6,00.0,38.1,31.5,12.6,0002.8,0033.69,0026.24,0024.99
2022-09-07 03:02:00,,0831.7,4.99,0.00,29.6,28.3,00.0,38.2,31.5,12.6,0002.7,0034.07,0026.24,0025.00
2022-09-07 03:03:00,,0831.7,5.00,0.00,29.6,27.0,00.0,38.2,31.3,12.6,0003.1,0033.95,0026.26,0025.00
2022-09-07 03:04:00,,0831.7,5.01,0.00,29.5,26.3,00.0,38.1,31.2,12.6,0003.0,0034.16,0026.37,0025.05
2022-09-07 03:05:00,,0831.7,5.00,0.00,29.4,26.4,00.0,38.1,31.1,12.7,0003.1,0034.69,0026.37,0025.06
2022-09-07 03:06:00,,0831.7,4.99,0.00,29.3,26.7,00.0,38.0,31.1,12.6,0003.2,0035.47,0026.38,0025.09
2022-09-07 03:07:00,,0831.7,5.02,0.00,29.3,27.0,00.0,38.0,31.1,12.7,0003.4,0035.57,0026.46,0025.14
2022-09-07 03:08:00,,0831.7,5.01,0.00,29.3,27.4,00.0,38.0,31.2,12.7,0003.7,0035.77,0026.55,0025.18
2022-09-07 03:09:00,,0831.7,4.98,0.00,29.4,27.7,00.0,38.0,31.2,12.7,0003.9,0036.02,0026.53,0025.21
2022-09-07 03:10:00,,0831.8,5.01,0.00,29.4,27.9,00.0,38.0,31.3,12.6,0004.1,0036.86,0026.52,0025.24
2022-09-07 03:11:00,,0831.7,5.01,0.00,29.4,28.1,00.0,38.1,31.3,12.6,0003.9,0037.83,0026.52,0025.24
2022-09-07 03:12:00,,0831.7,4.99,0.00,29.4,28.3,00.0,38.1,31.4,12.6,0003.5,0037.13,0026.49,0025.25
2022-09-07 03:13:00,,0831.7,4.99,0.00,29.5,28.5,00.0,38.1,31.4,12.6,0003.4,0036.90,0026.50,0025.23
2022-09-07 03:14:00,,0831.8,5.01,0.00,29.5,28.6,00.0,38.1,31.5,12.5,0003.3,0037.28,0026.44,0025.20
2022-09-07 03:15:00,,0831.7,4.98,0.00,29.6,28.6,00.0,38.2,31.5,12.5,0003.5,0037.68,0026.34,0025.15
2022-09-07 03:16:00,,0831.7,5.01,0.00,29.6,27.4,00.0,38.2,31.4,12.5,0003.5,0037.27,0026.32,0025.14
2022-09-07 03:17:00,,0831.7,5.01,0.00,29.5,26.3,00.0,38.1,31.3,12.6,0003.0,0036.56,0026.40,0025.17
2022-09-07 03:18:00,,0831.7,5.00,0.00,29.5,26.3,00.0,38.1,31.3,12.6,0003.2,0036.20,0026.38,0025.17
2022-09-07 03:19:00,,0831.7,5.00,0.00,29.4,26.5,00.0,38.1,31.1,12.6,0002.8,0035.75,0026.31,0025.17
2022-09-07 03:20:00,,0831.7,4.99,0.00,29.4,26.9,00.0,38.0,31.1,12.6,0002.7,0035.17,0026.32,0025.21
2022-09-07 03:21:00,,0831.7,5.00,0.00,29.4,27.2,00.0,38.0,31.1,12.7,0002.4,0034.12,0026.35,0025.25
2022-09-07 03:22:00,,0831.7,5.01,0.00,29.4,27.5,00.0,38.0,31.2,12.6,0002.4,0033.06,0026.30,0025.26
2022-09-07 03:23:00,,0831.8,5.01,0.00,29.4,27.8,00.0,38.0,31.3,12.7,0002.7,0033.56,0026.32,0025.23
2022-09-07 03:24:00,,0831.7,4.98,0.00,29.4,28.0,00.0,38.1,31.3,12.8,0002.8,0034.91,0026.33,0025.24
2022-09-07 03:25:00,,0831.7,5.01,0.00,29.4,28.2,00.0,38.1,31.4,12.6,0002.5,0035.44,0026.36,0025.26
2022-09-07 03:26:00,,0831.7,4.99,0.00,29.5,28.4,00.0,38.1,31.4,12.5,0002.1,0034.96,0026.44,0025.28
2022-09-07 03:27:00,,0831.7,5.00,0.00,29.5,28.5,00.0,38.1,31.5,12.5,0002.0,0036.19,0026.45,0025.28
2022-09-07 03:28:00,,0831.7,5.01,0.00,29.6,28.6,00.0,38.2,31.5,12.5,0001.9,0036.52,0026.34,0025.23
2022-09-07 03:29:00,,0831.7,5.00,0.00,29.6,27.9,00.0,38.2,31.5,12.5,0001.9,0036.48,0026.32,0025.20
2022-09-07 03:30:00,,0831.8,4.98,0.00,29.5,26.9,00.0,38.2,31.4,12.6,0002.1,0036.46,0026.28,0025.18
2022-09-07 03:31:00,,0831.7,5.01,0.00,29.5,27.0,00.0,38.1,31.4,12.5,0002.1,0036.91,0026.29,0025.17
2022-09-07 03:32:00,,0831.7,4.99,0.00,29.5,27.2,00.0,38.1,31.3,12.5,0002.2,0037.51,0026.30,0025.14
2022-09-07 03:33:00,,0831.8,5.01,0.00,29.5,27.5,00.0,38.1,31.3,12.7,0002.4,0038.00,0026.35,0025.13
2022-09-07 03:34:00,,0831.7,5.00,0.00,29.5,27.8,00.0,38.1,31.3,12.8,0002.1,0037.67,0026.28,0025.11
2022-09-07 03:35:00,,0831.7,5.01,0.00,29.5,28.0,00.0,38.1,31.4,12.7,0001.9,0036.63,0026.22,0025.09
2022-09-07 03:36:00,,0831.7,4.99,0.00,29.5,28.2,00.0,38.2,31.4,12.6,0002.4,0035.60,0026.18,0025.05
2022-09-07 03:37:00,,0831.7,5.02,0.00,29.6,28.4,00.0,38.2,31.5,12.6,0002.7,0035.67,0026.17,0025.04
2022-09-07 03:38:00,,0831.8,4.99,0.00,29.6,28.5,00.0,38.2,31.5,12.5,0002.8,0034.77,0026.16,0025.03
2022-09-07 03:39:00,,0831.7,5.00,0.00,29.6,28.7,00.0,38.2,31.6,12.5,0003.3,0034.21,0026.18,0025.02
2022-09-07 03:40:00,,0831.7,4.99,0.00,29.7,28.2,00.0,38.3,31.6,12.4,0002.7,0034.33,0026.21,0025.00
2022-09-07 03:41:00,,0831.7,5.00,0.00,29.6,26.7,00.0,38.3,31.3,12.4,0002.3,0034.92,0026.18,0024.98
2022-09-07 03:42:00,,0831.7,5.00,0.00,29.5,26.1,00.0,38.2,31.3,12.5,0002.4,0035.04,0026.19,0024.99
2022-09-07 03:43:00,,0831.7,5.00,0.00,29.5,26.3,00.0,38.2,31.2,12.5,0002.6,0035.47,0026.14,0024.95
2022-09-07 03:44:00,,0831.7,5.00,0.00,29.4,26.6,00.0,38.1,31.1,12.6,0003.0,0034.99,0026.11,0024.95
2022-09-07 03:45:00,,0831.7,5.00,0.00,29.4,27.0,00.0,38.1,31.1,12.6,0003.4,0034.63,0026.11,0024.96
2022-09-07 03:46:00,,0831.7,5.01,0.00,29.4,27.4,00.0,38.1,31.2,12.6,0003.7,0033.88,0026.09,0024.92
2022-09-07 03:47:00,,0831.7,5.01,0.00,29.4,27.7,00.0,38.1,31.2,12.5,0003.7,0033.78,0026.07,0024.91
2022-09-07 03:48:00,,0831.7,4.99,0.00,29.4,27.9,00.0,38.1,31.3,12.6,0003.8,0033.68,0026.06,0024.93
2022-09-07 03:49:00,,0831.7,5.02,0.00,29.4,28.1,00.0,38.1,31.3,12.6,0003.7,0033.19,0026.07,0024.94
2022-09-07 03:50:00,,0831.7,5.00,0.00,29.5,28.3,00.0,38.1,31.4,12.6,0003.6,0033.05,0026.11,0024.97
2022-09-07 03:51:00,,0831.7,5.01,0.00,29.5,28.5,00.0,38.2,31.4,12.6,0003.8,0032.69,0026.06,0024.99
2022-09-07 03:52:00,,0831.7,4.99,0.00,29.6,28.6,00.0,38.2,31.5,12.6,0003.8,0032.20,0026.10,0025.03
2022-09-07 03:53:00,,0831.7,5.00,0.00,29.6,28.7,00.0,38.2,31.6,12.5,0003.7,0031.83,0026.05,0024.99
2022-09-07 03:54:00,,0831.7,5.01,0.00,29.7,28.6,00.0,38.2,31.6,12.5,0003.8,0031.42,0026.06,0025.00
2022-09-07 03:55:00,,0831.7,4.99,0.00,29.6,27.4,00.0,38.2,31.5,12.5,0003.5,0031.84,0026.10,0025.02
2022-09-07 03:56:00,,0831.8,5.00,0.00,29.6,26.2,00.0,38.2,31.3,12.5,0003.4,0031.80,0026.09,0025.01
2022-09-07 03:57:00,,0831.7,5.01,0.00,29.5,26.3,00.0,38.2,31.3,12.6,0003.3,0031.80,0026.09,0025.05
2022-09-07 03:58:00,,0831.7,5.00,0.00,29.4,26.5,00.0,38.1,31.1,12.6,0003.2,0031.80,0026.08,0025.07
2022-09-07 03:59:00,,0831.7,4.99,0.00,29.4,26.9,00.0,38.1,31.1,12.7,0002.9,0031.76,0026.05,0025.05
